Showing default

ISAT, 43879

Orbit data source: Space-Track

ISAT, 43879 is a payload satellite owned by iSky (DE) in SSO that was launched on Thu, 27 Dec 2018 UTC via a SOYUZ-2-1A launch vehicle from the Vostochny Cosmodrome (VOSTO). Payload-class satellites include a variety of spacecraft equipped with specific instruments for various scientific and technological missions. These include communications satellites like Starlink; space stations such as the ISS; scientific satellites like the Hubble; Earth observation satellites from companies like Planet Labs, Umbra, and HawkEye 360; GPS; miniature CubeSats for education and research; and military/defense satellites.

Loading next visibility...
Identifier
43879, 2018-111D
Orbit
SSO
Country
Flag of DEDE / GER
Related business
Manufacturer
German Orb Sys
Mission
Operational Commercial Communications
Bus & Motor
CUBESAT 3U, Unknown motor
Mass
3 kg wet, 3 kg dry
Launch date (UTC)
2018-12-27 (7 years ago)
Launch vehicle
SOYUZ-2-1A
Launch site
Vostochny Cosmodrome (VOSTO)
Object type
Payload
Rocket body
Debris
Shape & HBR
Box + 1 Ant, 0.5 m
Radar Cross Section
0.061 m², Small (<0.1 m²)

Expand to show TLE details & history
Last TLE update: 13 hours ago

TLE from 13 hours ago
0 ISAT
1 43879U 18111D   25261.23231600  .00023054  00000-0  70144-3 0  9999
2 43879  97.5876 178.0732 0007525 178.3701 181.7567 15.33999047369103
Epoch: 2025-09-18T05:34Z
TLE epoch observation values (Epoch: 2025-09-18T05:34:32.102Z)
Latitude
-0.00002°
Longitude
97.04258°
Altitude
472.147 km
Speed
7.627 km/s
True Right ascension
11h 52m 17s
True Declination
0° 00' 00"
Sunlit
Object was in daylight at epoch
Visualization orbit readout
Latitude
Unknown
Longitude
Unknown
Altitude
Unknown
Speed
Unknown
Apparent Right ascension
Unknown
Apparent Declination
Unknown
Sunlit
N/A
Visualization observer readout
Local Sidereal Time
11:17:37
Azimuth
Unknown
Elevation
Unknown
Doppler factor
Unknown
Orbital elements
Apogee altitude
465.997 km
Perigee altitude
455.704 km
Semi-major axis
6,838.987 km
Eccentricity
0.00075
Inclination
97.5876°
RAAN
178.0732°
Arg. of periapsis
178.3701°
True anomaly
181.75406°
Mean anomaly
181.7567°
Eccentric anomaly
181.75538°
Mean motion
3.83756 °/min
Orbital period
93.81 mins
BSTAR
0.00070144
Loading maneuver chart data...
Computing Atmospheric mass density...
Loading historical data...
Loading historical data...
Loading historical data...
Loading historical data...
Loading historical data...
Loading historical data...
Loading historical data...

Documentation

Showing up to 5 results
|